sat.trackr.live / text

‹ back to catalog

QIANFAN-32

NORAD 61565 · 2024-185P

PAYLOAD ACTIVE UNKNOWN

§ Identity

Operator
Country
PRC
Launch date
2024-10-15
Launch site
TAISC
Launch vehicle
Mass (kg)
RCS (m²)

External: N2YO · Heavens-Above · Gunter

§ Orbital elements

Epoch: 2026-05-25T04:02:53.969280Z

Period
106.60 min
Inclination
88.9873°
Eccentricity
0.0008588
Mean motion
13.50783997 rev/d
Perigee alt
1,063.0 km
Apogee alt
1,075.8 km
Semi-major
7,447.5 km
B*
1.1649e-4
RAAN
64.1776°
Arg perigee
324.8399°
Mean anomaly
35.2184°
Rev number
9,010

§ Raw data

QIANFAN-321 61565U 24185P   26145.16868020  .00000087  00000+0  11649-3 0  99902 61565  88.9873  64.1776 0008588 324.8399  35.2184 13.50783997 90101

JSON: /api/v1/satellites/61565 · /tle

For live sub-satellite position, see the globe view (requires WebGL).

§ Visibility from observer

Set your observer location to see the next 7 days of passes ≥ 10°. The values pass through the URL so the page stays shareable.

No JS? Fill the form by hand. The geolocation button needs JavaScript.